ICHECE1 Weather Reports


Display with metric or nautical units.
time (UTC)temp
F
wind
direction
speed
MPH
gust
MPH
rain 1hr
in
rain 24hr
in
rain mn
in
humidity
%
barometer
mb
20260906014017 63 270 2.0 4.0 0.00 0.00 0.00 71 1025.4
20260906013017 61 270 2.0 4.0 0.00 0.00 0.00 72 1025.4
20260906012017 61 270 1.0 2.0 0.00 0.00 0.00 100
20260906011017 0 270 1.0 2.0 0.00 0.00 0.00 100
20260906010017 61 270 1.0 1.0 0.00 0.00 0.00 100
20260906005017 61 270 1.0 2.0 0.00 0.00 0.00
20260906004017 60 270 2.0 3.0 0.00 0.00 0.00 100
20260906003017 60 270 1.0 2.0 0.00 0.00 0.00 85 1025.3
20260906002017 59 0.0 1.0 0.00 0.00 0.00 77 1025.3
20260906001037 59 293 1.0 1.0 0.00 0.00 0.00 77 1025.2
20260906000037 58 0.0 1.0 0.00 0.00 0.00 77 1025.2
20260905235017 58 0.0 0.0 0.00 0.00 0.00 77 1025.1
20260905234017 59 0.0 1.0 0.00 0.00 0.00 76 1025.0
20260905233017 59 0.0 1.0 0.00 0.00 0.00 78 1024.9
20260905232017 60 0.0 0.0 0.00 0.00 0.00 77 1024.9
20260905231017 60 0.0 1.0 0.00 0.00 0.00 76 1025.0
20260905230016 60 0.0 1.0 0.00 0.00 0.00 75 1024.9
20260905225040 61 0.0 1.0 0.00 0.00 0.00 74 1024.8
20260905224017 61 0.0 0.0 0.00 0.00 0.00 70 1024.6
20260905223017 62 0.0 1.0 0.00 0.00 0.00 71 1024.7
20260905222037 63 0.0 1.0 0.00 0.00 0.00 69 1024.7
20260905221057 64 315 1.0 2.0 0.00 0.00 0.00 70 1024.7
20260905220016 64 0.0 1.0 0.00 0.00 0.00 68 1024.7
20260905215017 65 0.0 0.0 0.00 0.00 0.00 67 1024.5
20260905214017 66 0.0 1.0 0.00 0.00 0.00 66 1024.5
20260905213016 67 315 1.0 2.0 0.00 0.00 0.00 66 1024.4
20260905212017 67 315 1.0 2.0 0.00 0.00 0.00 65 1024.3
20260905211016 67 0.0 1.0 0.00 0.00 0.00 65 1024.1
20260905210016 67 315 1.0 1.0 0.00 0.00 0.00 65 1024.0
20260905205017 68 0.0 1.0 0.00 0.00 0.00 64 1023.9
20260905204037 68 0.0 1.0 0.00 0.00 0.00 63 1023.7
20260905203017 69 315 1.0 2.0 0.00 0.00 0.00 61 1023.8
20260905202017 69 338 1.0 2.0 0.00 0.00 0.00 59 1023.7
20260905201017 69 0 1.0 2.0 0.00 0.00 0.00 58 1023.5
20260905200017 69 0 2.0 3.0 0.00 0.00 0.00 56 1023.4
20260905195016 70 0 2.0 3.0 0.00 0.00 0.00 55 1023.1
20260905194017 71 0 3.0 5.0 0.00 0.00 0.00 53 1023.1
20260905193016 73 338 4.0 6.0 0.00 0.00 0.00 48 1023.1
20260905192017 73 0 1.0 2.0 0.00 0.00 0.00 46 1022.6
20260905191017 73 338 2.0 4.0 0.00 0.00 0.00 45 1022.9
20260905190016 73 338 2.0 3.0 0.00 0.00 0.00 44 1023.0
20260905185057 73 0 2.0 3.0 0.00 0.00 0.00 43 1022.7
20260905184016 73 338 2.0 2.0 0.00 0.00 0.00 41 1022.8
20260905183016 74 338 1.0 3.0 0.00 0.00 0.00 40 1022.5
20260905182016 74 338 1.0 2.0 0.00 0.00 0.00 39 1022.4
20260905181016 74 338 3.0 4.0 0.00 0.00 0.00 38 1022.3
20260905180016 74 338 2.0 3.0 0.00 0.00 0.00 37 1022.0
20260905174017 75 338 3.0 4.0 0.00 0.00 0.00 34 1021.7
20260905173016 76 338 3.0 6.0 0.00 0.00 0.00 37 1021.6
20260905172016 78 338 3.0 5.0 0.00 0.00 0.00 37 1021.4
20260905171016 79 338 3.0 5.0 0.00 0.00 0.00 39 1021.4
20260905170016 80 338 5.0 8.0 0.00 0.00 0.00 40 1021.2
20260905165016 81 338 3.0 5.0 0.00 0.00 0.00 37 1020.8
20260905164016 81 338 3.0 5.0 0.00 0.00 0.00 36 1020.8
20260905163016 82 338 3.0 8.0 0.00 0.00 0.00 35 1020.8
20260905162036 83 338 4.0 8.0 0.00 0.00 0.00 34 1020.9
20260905161016 84 338 4.0 9.0 0.00 0.00 0.00 34 1020.8
20260905160016 85 338 5.0 8.0 0.00 0.00 0.00 34 1020.7
20260905155016 86 338 6.0 10.0 0.00 0.00 0.00 86 1020.6
20260905154016 86 338 5.0 9.0 0.00 0.00 0.00
20260905153016 86 338 6.0 10.0 0.00 0.00 0.00 81 1020.4
20260905152016 87 338 5.0 8.0 0.00 0.00 0.00 31 1020.2
20260905151036 88 338 9.0 16.0 0.00 0.00 0.00 42 1020.1
20260905150016 88 338 7.0 13.0 0.00 0.00 0.00 30 1020.1
20260905145036 89 338 7.0 15.0 0.00 0.00 0.00
20260905144036 90 0 8.0 13.0 0.00 0.00 0.00 29 1019.8
20260905143017 91 338 9.0 14.0 0.00 0.00 0.00 30 1019.5
20260905142036 91 338 9.0 13.0 0.00 0.00 0.00 31 1019.4
20260905141018 91 338 9.0 16.0 0.00 0.00 0.00 32 1019.3
20260905140016 0 338 9.0 17.0 0.00 0.00 0.00 82
20260905135016 91 338 8.0 14.0 0.00 0.00 0.00 41 1019.3
20260905134016 89 338 8.0 13.0 0.00 0.00 0.00 59 1019.2
20260905133016 91 338 10.0 16.0 0.00 0.00 0.00 34 1019.0
20260905132016 91 0 11.0 17.0 0.00 0.00 0.00 35 1018.9
20260905131016 91 338 11.0 17.0 0.00 0.00 0.00 36 1018.8
20260905130016 93 338 9.0 14.0 0.00 0.00 0.00 36 1018.6
20260905125016 93 338 9.0 15.0 0.00 0.00 0.00 36 1018.6
20260905124016 94 0 10.0 16.0 0.00 0.00 0.00
20260905123018 0 338 8.0 13.0 0.00 0.00 0.00
20260905122038 0 315 4.0 9.0 0.00 0.00 0.00
20260905121059 97 315 4.0 10.0 0.00 0.00 0.00 30 1018.4
20260905120018 96 315 4.0 11.0 0.00 0.00 0.00 79 1018.7
20260905115018 96 315 4.0 14.0 0.00 0.00 0.00 31 1018.6
20260905114016 96 315 3.0 7.0 0.00 0.00 0.00 32 1018.5
20260905113018 96 315 4.0 9.0 0.00 0.00 0.00 79 1018.8
20260905112018 96 270 5.0 11.0 0.00 0.00 0.00 32 1018.8
20260905111020 95 270 6.0 13.0 0.00 0.00 0.00 80 1018.9
20260905110018 95 270 4.0 10.0 0.00 0.00 0.00 82 1018.9
20260905105018 95 180 5.0 11.0 0.00 0.00 0.00 32 1018.9
20260905104018 95 270 6.0 11.0 0.00 0.00 0.00 32 1019.0
20260905103017 95 270 4.0 9.0 0.00 0.00 0.00 32 1019.0
20260905102018 94 270 6.0 10.0 0.00 0.00 0.00 53 1019.2
20260905101017 94 270 5.0 8.0 0.00 0.00 0.00 32 1019.1
20260905100038 94 270 4.0 8.0 0.00 0.00 0.00 33 1019.1
20260905095018 93 270 5.0 11.0 0.00 0.00 0.00 33 1019.1
20260905094017 92 270 6.0 9.0 0.00 0.00 0.00 81 1019.3
20260905093017 92 203 4.0 6.0 0.00 0.00 0.00 35 1019.1
20260905092017 0 203 2.0 5.0 0.00 0.00 0.00
20260905091018 90 203 3.0 8.0 0.00 0.00 0.00 92 1019.1
20260905090017 90 248 5.0 9.0 0.00 0.00 0.00 36 1019.2
20260905085018 89 248 3.0 9.0 0.00 0.00 0.00 37 1019.3
20260905084018 88 248 4.0 8.0 0.00 0.00 0.00 38 1019.4
20260905083017 88 180 2.0 6.0 0.00 0.00 0.00 38 1019.4
20260905082018 87 180 3.0 5.0 0.00 0.00 0.00 39 1019.2
20260905081017 86 203 2.0 4.0 0.00 0.00 0.00 39 1019.3
20260905080058 86 203 1.0 3.0 0.00 0.00 0.00 40 1019.3
20260905075017 85 203 3.0 6.0 0.00 0.00 0.00 40 1019.3
20260905074017 84 203 2.0 6.0 0.00 0.00 0.00 40 1019.2
20260905073038 83 180 2.0 4.0 0.00 0.00 0.00 41 1019.2
20260905072017 83 180 2.0 6.0 0.00 0.00 0.00 43 1019.3
20260905071019 81 180 2.0 6.0 0.00 0.00 0.00 45 1019.2
20260905070017 80 180 2.0 5.0 0.00 0.00 0.00 45 1019.1
20260905065018 79 180 3.0 6.0 0.00 0.00 0.00 47 1019.2
20260905064017 78 180 2.0 5.0 0.00 0.00 0.00 49 1019.2
20260905063017 76 180 2.0 5.0 0.00 0.00 0.00 51 1019.2
20260905062017 75 180 2.0 6.0 0.00 0.00 0.00 53 1019.2
20260905061017 73 180 2.0 6.0 0.00 0.00 0.00 55 1019.1
20260905060017 71 180 3.0 7.0 0.00 0.00 0.00 58 1019.0
20260905055037 70 180 2.0 6.0 0.00 0.00 0.00 61 1019.0
20260905054017 68 180 2.0 7.0 0.00 0.00 0.00 63 1018.8
20260905053017 67 203 1.0 2.0 0.00 0.00 0.00 65 1019.0
20260905052017 65 203 1.0 3.0 0.00 0.00 0.00 66 1019.0
20260905051017 64 203 1.0 4.0 0.00 0.00 0.00 68 1018.8
20260905050037 63 203 1.0 3.0 0.00 0.00 0.00 69 1018.8
20260905045017 63 203 1.0 3.0 0.00 0.00 0.00 70 1018.7
20260905044037 62 0.0 2.0 0.00 0.00 0.00 70 1018.7
20260905043037 62 0.0 2.0 0.00 0.00 0.00 71 1018.7
20260905042017 61 0.0 2.0 0.00 0.00 0.00 71 1018.6
20260905041017 61 0.0 2.0 0.00 0.00 0.00 70 1018.6
20260905040019 61 0.0 3.0 0.00 0.00 0.00 70 1018.8
20260905035017 61 0.0 1.0 0.00 0.00 0.00 70 1018.8
20260905034017 61 0.0 1.0 0.00 0.00 0.00 70 1018.7
20260905033017 61 0.0 1.0 0.00 0.00 0.00 70 1018.8
20260905032017 61 0.0 1.0 0.00 0.00 0.00 69 1018.8
20260905031017 61 0.0 2.0 0.00 0.00 0.00 69 1018.8
20260905030017 61 0.0 1.0 0.00 0.00 0.00 68 1018.7
20260905025017 61 203 1.0 2.0 0.00 0.00 0.00 69 1018.6
20260905024037 61 0.0 2.0 0.00 0.00 0.00 68 1018.6
20260905023037 61 0.0 2.0 0.00 0.00 0.00 67 1018.7
20260905022016 61 0.0 1.0 0.00 0.00 0.00 67 1018.7
20260905021017 61 0.0 1.0 0.00 0.00 0.00 67 1018.7
20260905020017 61 0.0 1.0 0.00 0.00 0.00 67 1018.6
20260905015017 61 0.0 2.0 0.00 0.00 0.00 67 1018.6